| time (UTC) | temp F | wind direction | speed knots | gust knots | rain 1hr in | rain 24hr in | rain mn in | humidity % | barometer mb |
| 20260509145008 | 66 | 298 | 3.5 | 7.0 | 0.01 | 0.54 | 0.01 | 82 | 1011.5 |
| 20260509144506 | 66 | 309 | 1.7 | 7.8 | 0.01 | 0.54 | 0.01 | 83 | 1011.5 |
| 20260509144004 | 65 | 277 | 4.3 | 7.8 | 0.01 | 0.54 | 0.01 | 83 | 1011.4 |
| 20260509143501 | 65 | 249 | 0.9 | 7.0 | 0.01 | 0.54 | 0.01 | 86 | 1011.6 |
| 20260509143100 | 64 | 295 | 2.6 | 7.0 | 0.01 | 0.54 | 0.01 | 88 | 1011.6 |
| 20260509142558 | 64 | 291 | 1.7 | 4.3 | 0.01 | 0.54 | 0.01 | 91 | 1011.4 |
| 20260509142057 | 63 | 236 | 0.9 | 7.0 | 0.01 | 0.54 | 0.01 | 95 | 1011.5 |
| 20260509141556 | 62 | 295 | 2.6 | 7.0 | 0.01 | 0.54 | 0.01 | 96 | 1011.5 |
| 20260509141054 | 61 | 326 | 0.9 | 3.5 | 0.01 | 0.54 | 0.01 | 97 | 1011.3 |
| 20260509140501 | 60 | 335 | 1.7 | 3.5 | 0.01 | 0.54 | 0.01 | 98 | 1011.2 |
| 20260509140107 | 59 | 257 | 0.9 | 7.0 | 0.00 | 0.53 | 0.00 | 98 | 1011.3 |
| 20260509135601 | 58 | 339 | 2.6 | 7.0 | 0.00 | 0.53 | 0.00 | 98 | 1011.3 |
| 20260509135057 | 58 | 126 | 0.0 | 2.6 | 0.00 | 0.53 | 0.00 | 98 | 1011.2 |
| 20260509134607 | 57 | 157 | 0.0 | 1.7 | 0.00 | 0.53 | 0.00 | 98 | 1011.2 |
| 20260509134053 | 57 | 157 | 0.0 | 1.7 | 0.00 | 0.53 | 0.00 | 98 | 1011.1 |
| 20260509133552 | 56 | 88 | 0.0 | 1.7 | 0.00 | 0.53 | 0.00 | 98 | 1011.1 |
| 20260509133052 | 55 | 5 | 0.0 | 1.7 | 0.00 | 0.53 | 0.00 | 98 | 1011.1 |
| 20260509132551 | 54 | 355 | 0.0 | 1.7 | 0.00 | 0.53 | 0.00 | 98 | 1011.1 |
| 20260509132052 | 53 | 360 | 0.0 | 0.9 | 0.00 | 0.53 | 0.00 | 98 | 1011.0 |
| 20260509131605 | 53 | 360 | 0.0 | 1.7 | 0.00 | 0.53 | 0.00 | 98 | 1010.9 |
| 20260509131048 | 53 | 5 | 0.0 | 1.7 | 0.00 | 0.53 | 0.00 | 98 | 1011.0 |
| 20260509130648 | 52 | 15 | 0.0 | 0.9 | 0.00 | 0.53 | 0.00 | 97 | 1010.9 |
| 20260509125551 | 51 | 360 | 0.0 | 0.9 | 0.00 | 0.53 | 0.00 | 97 | 1010.8 |
| 20260509125055 | 51 | 347 | 0.0 | 0.9 | 0.00 | 0.53 | 0.00 | 97 | 1010.9 |
| 20260509124550 | 51 | 355 | 0.0 | 0.9 | 0.00 | 0.53 | 0.00 | 97 | 1010.9 |
| 20260509124048 | 50 | 343 | 0.0 | 0.9 | 0.00 | 0.53 | 0.00 | 97 | 1010.8 |
| 20260509123548 | 50 | 327 | 0.0 | 0.9 | 0.00 | 0.53 | 0.00 | 97 | 1010.8 |
| 20260509123052 | 50 | 327 | 0.0 | 0.9 | 0.00 | 0.53 | 0.00 | 97 | 1010.8 |
| 20260509122546 | 50 | 325 | 0.0 | 0.9 | 0.00 | 0.53 | 0.00 | 97 | 1010.8 |
| 20260509122045 | 50 | 325 | 0.0 | 0.9 | 0.00 | 0.53 | 0.00 | 97 | 1010.7 |
| 20260509121549 | 50 | 325 | 0.0 | 0.9 | 0.00 | 0.53 | 0.00 | 97 | 1010.7 |
| 20260509121048 | 50 | 325 | 0.0 | 0.9 | 0.00 | 0.53 | 0.00 | 97 | 1010.6 |
| 20260509120645 | 50 | 325 | 0.0 | 0.9 | 0.00 | 0.53 | 0.00 | 97 | 1010.6 |
| 20260509120058 | 50 | 347 | 0.0 | 1.7 | 0.00 | 0.53 | 0.00 | 97 | 1010.6 |
| 20260509115552 | 50 | 178 | 0.0 | 0.9 | 0.00 | 0.53 | 0.00 | 97 | 1010.5 |
| 20260509115051 | 49 | 178 | 0.0 | 0.9 | 0.00 | 0.53 | 0.00 | 97 | 1010.5 |
| 20260509114605 | 49 | 178 | 0.0 | 0.9 | 0.00 | 0.53 | 0.00 | 97 | 1010.5 |
| 20260509114049 | 49 | 178 | 0.0 | 0.9 | 0.00 | 0.53 | 0.00 | 97 | 1010.5 |
| 20260509113549 | 49 | 178 | 0.0 | 0.0 | 0.00 | 0.53 | 0.00 | 97 | 1010.4 |
| 20260509113053 | 49 | 178 | 0.0 | 0.0 | 0.00 | 0.53 | 0.00 | 97 | 1010.4 |
| 20260509112546 | 49 | 178 | 0.0 | 0.0 | 0.00 | 0.53 | 0.00 | 97 | 1010.4 |
| 20260509112045 | 49 | 178 | 0.0 | 0.0 | 0.00 | 0.53 | 0.00 | 97 | 1010.2 |
| 20260509111546 | 49 | 178 | 0.0 | 0.0 | 0.00 | 0.53 | 0.00 | 97 | 1010.1 |
| 20260509111047 | 49 | 178 | 0.0 | 0.0 | 0.00 | 0.53 | 0.00 | 97 | 1010.1 |
| 20260509110514 | 49 | 178 | 0.0 | 0.9 | 0.00 | 0.53 | 0.00 | 97 | 1010.1 |
| 20260509110001 | 49 | 178 | 0.0 | 0.9 | 0.00 | 0.53 | 0.00 | 97 | 1009.7 |
| 20260509105501 | 49 | 178 | 0.0 | 0.0 | 0.00 | 0.53 | 0.00 | 97 | 1009.6 |
| 20260509105003 | 49 | 178 | 0.0 | 0.0 | 0.00 | 0.53 | 0.00 | 97 | 1009.7 |
| 20260509104610 | 49 | 178 | 0.0 | 0.0 | 0.00 | 0.53 | 0.00 | 97 | 1009.7 |
| 20260509104059 | 50 | 178 | 0.0 | 0.0 | 0.00 | 0.53 | 0.00 | 97 | 1009.7 |
| 20260509103557 | 50 | 178 | 0.0 | 0.0 | 0.00 | 0.53 | 0.00 | 97 | 1009.7 |
| 20260509103056 | 50 | 178 | 0.0 | 0.0 | 0.00 | 0.53 | 0.00 | 97 | 1009.7 |
| 20260509102556 | 50 | 178 | 0.0 | 0.0 | 0.00 | 0.53 | 0.00 | 97 | 1009.7 |
| 20260509102055 | 51 | 178 | 0.0 | 0.0 | 0.00 | 0.53 | 0.00 | 97 | 1009.7 |
| 20260509101555 | 51 | 178 | 0.0 | 0.0 | 0.00 | 0.53 | 0.00 | 97 | 1009.7 |
| 20260509101057 | 51 | 178 | 0.0 | 0.0 | 0.00 | 0.53 | 0.00 | 97 | 1009.9 |
| 20260509100653 | 51 | 178 | 0.0 | 0.9 | 0.00 | 0.53 | 0.00 | 97 | 1009.9 |
| 20260509100056 | 51 | 178 | 0.0 | 0.9 | 0.00 | 0.53 | 0.00 | 97 | 1009.8 |
| 20260509095557 | 52 | 178 | 0.0 | 0.9 | 0.00 | 0.53 | 0.00 | 97 | 1009.8 |
| 20260509095055 | 52 | 178 | 0.0 | 0.9 | 0.00 | 0.53 | 0.00 | 97 | 1010.1 |
| 20260509094607 | 52 | 178 | 0.0 | 0.9 | 0.00 | 0.53 | 0.00 | 97 | 1010.1 |
| 20260509094054 | 52 | 178 | 0.0 | 0.9 | 0.00 | 0.53 | 0.00 | 97 | 1010.0 |
| 20260509093552 | 52 | 178 | 0.0 | 0.0 | 0.00 | 0.53 | 0.00 | 97 | 1009.9 |
| 20260509093052 | 52 | 178 | 0.0 | 0.9 | 0.00 | 0.53 | 0.00 | 97 | 1009.9 |
| 20260509092552 | 52 | 178 | 0.0 | 2.6 | 0.00 | 0.53 | 0.00 | 97 | 1010.0 |
| 20260509092050 | 53 | 177 | 0.0 | 1.7 | 0.00 | 0.53 | 0.00 | 97 | 1010.0 |
| 20260509091552 | 53 | 214 | 0.0 | 0.9 | 0.00 | 0.53 | 0.00 | 97 | 1010.0 |
| 20260509091050 | 53 | 305 | 0.0 | 0.9 | 0.00 | 0.53 | 0.00 | 97 | 1009.9 |
| 20260509090648 | 53 | 305 | 0.0 | 0.9 | 0.00 | 0.53 | 0.00 | 97 | 1009.7 |
| 20260509090101 | 53 | 305 | 0.0 | 0.9 | 0.00 | 0.53 | 0.00 | 97 | 1009.4 |
| 20260509085551 | 53 | 305 | 0.0 | 0.9 | 0.00 | 0.53 | 0.00 | 97 | 1009.3 |
| 20260509085050 | 53 | 305 | 0.0 | 0.9 | 0.00 | 0.53 | 0.00 | 97 | 1009.5 |
| 20260509084557 | 53 | 305 | 0.0 | 1.7 | 0.00 | 0.53 | 0.00 | 97 | 1009.6 |
| 20260509084048 | 54 | 305 | 0.0 | 1.7 | 0.00 | 0.53 | 0.00 | 97 | 1009.7 |
| 20260509083546 | 54 | 292 | 0.0 | 2.6 | 0.00 | 0.53 | 0.00 | 97 | 1009.6 |
| 20260509083049 | 54 | 289 | 0.0 | 2.6 | 0.00 | 0.53 | 0.00 | 97 | 1009.5 |
| 20260509082546 | 54 | 179 | 0.0 | 3.5 | 0.00 | 0.53 | 0.00 | 97 | 1009.6 |
| 20260509082046 | 54 | 179 | 0.9 | 3.5 | 0.00 | 0.53 | 0.00 | 97 | 1009.6 |
| 20260509081546 | 55 | 191 | 0.9 | 3.5 | 0.00 | 0.53 | 0.00 | 97 | 1009.6 |
| 20260509081046 | 55 | 200 | 0.9 | 2.6 | 0.00 | 0.53 | 0.00 | 97 | 1009.6 |
| 20260509080645 | 55 | 236 | 0.0 | 1.7 | 0.00 | 0.53 | 0.00 | 97 | 1009.5 |
| 20260509080042 | 55 | 213 | 0.0 | 1.7 | 0.00 | 0.53 | 0.00 | 97 | 1009.1 |
| 20260509075542 | 55 | 178 | 0.0 | 1.7 | 0.00 | 0.53 | 0.00 | 97 | 1009.2 |
| 20260509075042 | 55 | 248 | 0.0 | 2.6 | 0.00 | 0.53 | 0.00 | 97 | 1009.3 |
| 20260509074549 | 55 | 203 | 0.0 | 2.6 | 0.00 | 0.53 | 0.00 | 97 | 1009.3 |
| 20260509074042 | 55 | 196 | 0.0 | 2.6 | 0.00 | 0.53 | 0.00 | 97 | 1009.2 |
| 20260509073541 | 55 | 186 | 0.9 | 2.6 | 0.00 | 0.53 | 0.00 | 97 | 1009.2 |
| 20260509073040 | 55 | 217 | 0.0 | 2.6 | 0.00 | 0.53 | 0.00 | 97 | 1009.2 |
| 20260509072544 | 55 | 196 | 0.0 | 2.6 | 0.00 | 0.53 | 0.00 | 97 | 1009.3 |
| 20260509072040 | 55 | 306 | 0.9 | 2.6 | 0.00 | 0.53 | 0.00 | 97 | 1009.4 |
| 20260509071540 | 56 | 235 | 0.0 | 1.7 | 0.00 | 0.53 | 0.00 | 97 | 1009.3 |
| 20260509071040 | 56 | 239 | 0.0 | 3.5 | 0.00 | 0.53 | 0.00 | 97 | 1009.4 |
| 20260509070640 | 56 | 192 | 0.0 | 5.2 | 0.00 | 0.53 | 0.00 | 97 | 1009.4 |
| 20260509070105 | 56 | 236 | 1.7 | 5.2 | 0.00 | 0.53 | 0.00 | 97 | 1009.7 |
| 20260509065555 | 56 | 209 | 0.9 | 2.6 | 0.00 | 0.53 | 0.00 | 97 | 1009.6 |
| 20260509065055 | 56 | 191 | 0.9 | 2.6 | 0.00 | 0.53 | 0.00 | 97 | 1009.5 |
| 20260509064555 | 56 | 277 | 0.9 | 2.6 | 0.00 | 0.53 | 0.00 | 97 | 1009.7 |
| 20260509064054 | 56 | 188 | 0.0 | 2.6 | 0.00 | 0.53 | 0.00 | 97 | 1009.7 |
| 20260509063553 | 56 | 188 | 0.9 | 2.6 | 0.00 | 0.53 | 0.00 | 97 | 1009.7 |
| 20260509063054 | 56 | 198 | 0.9 | 2.6 | 0.00 | 0.53 | 0.00 | 97 | 1009.6 |
| 20260509062553 | 56 | 163 | 0.0 | 0.0 | 0.00 | 0.53 | 0.00 | 97 | 1009.6 |
| 20260509062054 | 55 | 163 | 0.0 | 0.0 | 0.00 | 0.53 | 0.00 | 97 | 1009.6 |
| 20260509061556 | 55 | 163 | 0.0 | 0.0 | 0.00 | 0.53 | 0.00 | 97 | 1009.6 |
| 20260509061052 | 55 | 163 | 0.0 | 0.0 | 0.00 | 0.53 | 0.00 | 96 | 1009.6 |
| 20260509060653 | 55 | 163 | 0.0 | 0.0 | 0.00 | 0.53 | 0.00 | 96 | 1009.7 |
| 20260509060059 | 55 | 163 | 0.0 | 0.0 | 0.00 | 0.53 | 0.00 | 96 | 1009.7 |
| 20260509055555 | 54 | 163 | 0.0 | 0.0 | 0.00 | 0.53 | 0.00 | 96 | 1009.7 |
| 20260509055055 | 54 | 163 | 0.0 | 0.0 | 0.00 | 0.53 | 0.00 | 96 | 1009.6 |
| 20260509054613 | 54 | 163 | 0.0 | 0.0 | 0.00 | 0.53 | 0.00 | 96 | 1009.6 |
| 20260509054053 | 55 | 163 | 0.0 | 0.0 | 0.00 | 0.53 | 0.00 | 96 | 1009.5 |
| 20260509053552 | 55 | 163 | 0.0 | 0.0 | 0.00 | 0.53 | 0.00 | 96 | 1009.5 |
| 20260509053141 | 55 | 163 | 0.0 | 0.0 | 0.00 | 0.53 | 0.00 | 96 | 1009.6 |
| 20260509052555 | 55 | 143 | 0.0 | 0.0 | 0.01 | 0.53 | 0.00 | 96 | 1009.5 |
| 20260509052053 | 55 | 143 | 0.0 | 0.0 | 0.01 | 0.53 | 0.00 | 96 | 1009.3 |
| 20260509051553 | 56 | 143 | 0.0 | 0.9 | 0.01 | 0.53 | 0.00 | 96 | 1009.3 |
| 20260509051048 | 56 | 143 | 0.0 | 0.9 | 0.03 | 0.53 | 0.00 | 96 | 1009.2 |
| 20260509050649 | 56 | 143 | 0.0 | 0.9 | 0.05 | 0.53 | 0.00 | 96 | 1009.2 |
| 20260509050048 | 56 | 143 | 0.0 | 1.7 | 0.07 | 0.53 | 0.00 | 96 | 1009.1 |
| 20260509045545 | 56 | 144 | 0.0 | 2.6 | 0.10 | 0.53 | 0.53 | 96 | 1009.1 |
| 20260509045045 | 57 | 160 | 0.9 | 4.3 | 0.17 | 0.53 | 0.53 | 96 | 1009.2 |
| 20260509044548 | 57 | 168 | 1.7 | 4.3 | 0.25 | 0.53 | 0.53 | 96 | 1009.1 |
| 20260509044044 | 57 | 138 | 0.9 | 4.3 | 0.28 | 0.53 | 0.53 | 96 | 1009.2 |
| 20260509043545 | 57 | 170 | 0.9 | 6.1 | 0.30 | 0.53 | 0.53 | 96 | 1009.3 |
| 20260509043044 | 57 | 116 | 0.0 | 6.1 | 0.31 | 0.53 | 0.53 | 96 | 1009.4 |
| 20260509042544 | 57 | 112 | 0.9 | 3.5 | 0.33 | 0.52 | 0.52 | 96 | 1009.4 |
| 20260509042044 | 57 | 111 | 0.9 | 2.6 | 0.33 | 0.52 | 0.52 | 96 | 1009.5 |
| 20260509041544 | 57 | 144 | 0.0 | 1.7 | 0.33 | 0.52 | 0.52 | 96 | 1009.9 |
| 20260509041043 | 57 | 236 | 0.0 | 1.7 | 0.36 | 0.50 | 0.50 | 95 | 1010.1 |
| 20260509040643 | 57 | 75 | 0.0 | 3.5 | 0.43 | 0.48 | 0.48 | 95 | 1010.1 |
| 20260509040106 | 57 | 24 | 0.0 | 5.2 | 0.42 | 0.46 | 0.46 | 95 | 1010.4 |
| 20260509035546 | 57 | 313 | 1.7 | 5.2 | 0.38 | 0.42 | 0.42 | 95 | 1010.8 |
| 20260509035046 | 57 | 293 | 2.6 | 8.7 | 0.31 | 0.35 | 0.35 | 95 | 1010.6 |
| 20260509034557 | 57 | 24 | 2.6 | 10.4 | 0.24 | 0.28 | 0.28 | 95 | 1010.6 |
| 20260509034045 | 57 | 360 | 2.6 | 11.3 | 0.22 | 0.25 | 0.25 | 95 | 1010.2 |
| 20260509033544 | 57 | 319 | 3.5 | 11.3 | 0.20 | 0.23 | 0.23 | 95 | 1010.4 |
| 20260509033045 | 57 | 20 | 3.5 | 7.8 | 0.18 | 0.21 | 0.21 | 94 | 1010.4 |
| 20260509032545 | 58 | 340 | 1.7 | 5.2 | 0.16 | 0.19 | 0.19 | 94 | 1010.5 |
| 20260509032044 | 58 | 351 | 1.7 | 5.2 | 0.16 | 0.19 | 0.19 | 94 | 1010.1 |
| 20260509031544 | 58 | 5 | 3.5 | 8.7 | 0.16 | 0.19 | 0.19 | 94 | 1010.2 |
| 20260509031044 | 58 | 13 | 4.3 | 10.4 | 0.11 | 0.14 | 0.14 | 94 | 1010.7 |
| 20260509030644 | 58 | 311 | 3.5 | 10.4 | 0.02 | 0.05 | 0.05 | 94 | 1010.4 |
| 20260509030041 | 58 | 5 | 4.3 | 12.2 | 0.01 | 0.04 | 0.04 | 93 | 1009.2 |
| 20260509025540 | 58 | 5 | 5.2 | 12.2 | 0.01 | 0.04 | 0.04 | 93 | 1008.9 |
| 20260509025041 | 59 | 77 | 3.5 | 12.2 | 0.01 | 0.04 | 0.04 | 93 | 1009.2 |
| 20260509024543 | 59 | 324 | 2.6 | 10.4 | 0.01 | 0.04 | 0.04 | 94 | 1009.3 |
| 20260509024040 | 59 | 355 | 5.2 | 13.0 | 0.00 | 0.03 | 0.03 | 94 | 1009.3 |
| 20260509023539 | 58 | 17 | 1.7 | 13.0 | 0.00 | 0.03 | 0.03 | 94 | 1009.2 |
| 20260509023046 | 58 | 340 | 5.2 | 12.2 | 0.00 | 0.03 | 0.03 | 94 | 1009.0 |
| 20260509022539 | 59 | 315 | 4.3 | 10.4 | 0.00 | 0.03 | 0.03 | 94 | 1009.0 |
| 20260509022039 | 59 | 211 | 0.0 | 1.7 | 0.00 | 0.03 | 0.03 | 94 | 1007.8 |
| 20260509021539 | 59 | 164 | 0.0 | 3.5 | 0.00 | 0.03 | 0.03 | 94 | 1007.6 |
| 20260509021042 | 59 | 182 | 1.7 | 3.5 | 0.00 | 0.03 | 0.03 | 94 | 1007.6 |
| 20260509020507 | 58 | 160 | 0.9 | 3.5 | 0.00 | 0.03 | 0.03 | 94 | 1007.7 |
| 20260509020007 | 59 | 161 | 0.9 | 3.5 | 0.00 | 0.03 | 0.03 | 94 | 1007.7 |
| 20260509015508 | 59 | 157 | 0.9 | 2.6 | 0.00 | 0.03 | 0.03 | 94 | 1007.8 |
| 20260509015007 | 58 | 157 | 0.0 | 2.6 | 0.00 | 0.03 | 0.03 | 94 | 1008.0 |
| 20260509014506 | 58 | 142 | 0.9 | 2.6 | 0.01 | 0.03 | 0.03 | 94 | 1008.1 |
| 20260509014006 | 59 | 186 | 0.0 | 2.6 | 0.01 | 0.03 | 0.03 | 94 | 1008.3 |
| 20260509013507 | 59 | 117 | 0.9 | 2.6 | 0.01 | 0.03 | 0.03 | 94 | 1008.4 |
| 20260509013007 | 59 | 150 | 0.9 | 2.6 | 0.01 | 0.03 | 0.03 | 94 | 1008.3 |
| 20260509012506 | 59 | 166 | 0.0 | 2.6 | 0.02 | 0.03 | 0.03 | 94 | 1008.4 |
| 20260509012007 | 59 | 155 | 0.9 | 2.6 | 0.02 | 0.03 | 0.03 | 93 | 1008.4 |
| 20260509011506 | 59 | 145 | 0.0 | 1.7 | 0.03 | 0.03 | 0.03 | 93 | 1008.3 |
| 20260509011108 | 59 | 124 | 0.0 | 3.5 | 0.03 | 0.03 | 0.03 | 93 | 1008.4 |
| 20260509010651 | 59 | 136 | 0.0 | 3.5 | 0.03 | 0.03 | 0.03 | 93 | 1007.2 |
| 20260509010056 | 59 | 125 | 0.9 | 1.7 | 0.03 | 0.03 | 0.03 | 92 | 1007.6 |
| 20260509005556 | 59 | 107 | 0.0 | 0.9 | 0.03 | 0.03 | 0.03 | 92 | 1007.7 |
| 20260509005055 | 59 | 70 | 0.0 | 2.6 | 0.03 | 0.03 | 0.03 | 91 | 1007.7 |
| 20260509004554 | 60 | 69 | 0.9 | 2.6 | 0.02 | 0.02 | 0.02 | 91 | 1007.7 |
| 20260509004054 | 60 | 114 | 0.9 | 3.5 | 0.02 | 0.02 | 0.02 | 90 | 1008.0 |
| 20260509003555 | 60 | 294 | 0.9 | 3.5 | 0.02 | 0.02 | 0.02 | 88 | 1007.9 |
| 20260509003118 | 61 | 347 | 0.9 | 2.6 | 0.02 | 0.02 | 0.02 | 86 | 1007.8 |
| 20260509002554 | 62 | 292 | 0.9 | 7.8 | 0.01 | 0.01 | 0.01 | 82 | 1007.8 |
| 20260509002055 | 63 | 240 | 1.7 | 10.4 | 0.01 | 0.01 | 0.01 | 78 | 1007.8 |
| 20260509001602 | 65 | 301 | 4.3 | 14.8 | 0.00 | 0.00 | 0.00 | 73 | 1007.9 |
| 20260509001054 | 67 | 321 | 4.3 | 15.6 | 0.00 | 0.00 | 0.00 | 68 | 1007.8 |
| 20260509000654 | 69 | 290 | 7.0 | 15.6 | 0.00 | 0.00 | 0.00 | 67 | 1007.9 |
| 20260509000108 | 69 | 165 | 0.0 | 1.7 | 0.00 | 0.00 | 0.00 | 67 | 1007.4 |
| 20260508235552 | 69 | 189 | 0.0 | 2.6 | 0.00 | 0.00 | 0.00 | 68 | 1007.4 |
| 20260508235052 | 70 | 201 | 0.0 | 4.3 | 0.00 | 0.00 | 0.00 | 67 | 1007.3 |
| 20260508234551 | 70 | 194 | 0.9 | 4.3 | 0.00 | 0.00 | 0.00 | 64 | 1007.3 |
| 20260508234053 | 70 | 209 | 0.0 | 0.9 | 0.00 | 0.00 | 0.00 | 65 | 1007.4 |
| 20260508233551 | 71 | 210 | 0.0 | 1.7 | 0.00 | 0.00 | 0.00 | 64 | 1007.5 |
| 20260508233051 | 71 | 196 | 0.9 | 1.7 | 0.00 | 0.00 | 0.00 | 63 | 1007.6 |
| 20260508232550 | 71 | 240 | 0.0 | 2.6 | 0.00 | 0.00 | 0.00 | 67 | 1007.6 |
| 20260508232050 | 72 | 240 | 0.0 | 2.6 | 0.00 | 0.00 | 0.00 | 60 | 1007.6 |
| 20260508231552 | 72 | 186 | 0.9 | 4.3 | 0.00 | 0.00 | 0.00 | 58 | 1007.6 |
| 20260508231050 | 72 | 200 | 1.7 | 5.2 | 0.00 | 0.00 | 0.00 | 57 | 1007.6 |
| 20260508230652 | 73 | 197 | 1.7 | 7.8 | 0.00 | 0.00 | 0.00 | 55 | 1007.7 |
| 20260508225600 | 73 | 178 | 1.7 | 6.1 | 0.00 | 0.00 | 0.00 | 56 | 1007.6 |
| 20260508225101 | 73 | 158 | 2.6 | 6.1 | 0.00 | 0.00 | 0.00 | 57 | 1007.6 |
| 20260508224607 | 73 | 191 | 1.7 | 7.0 | 0.00 | 0.00 | 0.00 | 56 | 1007.6 |
| 20260508224058 | 73 | 196 | 2.6 | 7.0 | 0.00 | 0.00 | 0.00 | 55 | 1007.6 |
| 20260508223558 | 73 | 182 | 0.9 | 4.3 | 0.00 | 0.00 | 0.00 | 55 | 1007.7 |
| 20260508223058 | 73 | 203 | 0.9 | 8.7 | 0.00 | 0.00 | 0.00 | 58 | 1007.6 |
| 20260508222557 | 73 | 223 | 2.6 | 9.6 | 0.00 | 0.00 | 0.00 | 52 | 1007.7 |
| 20260508222057 | 74 | 31 | 3.5 | 9.6 | 0.00 | 0.00 | 0.00 | 54 | 1007.7 |
| 20260508221559 | 74 | 324 | 0.0 | 6.1 | 0.00 | 0.00 | 0.00 | 52 | 1007.8 |
| 20260508221057 | 74 | 205 | 1.7 | 6.1 | 0.00 | 0.00 | 0.00 | 54 | 1007.8 |
| 20260508220657 | 75 | 195 | 0.9 | 8.7 | 0.00 | 0.00 | 0.00 | 53 | 1007.8 |
| 20260508220058 | 74 | 188 | 3.5 | 8.7 | 0.00 | 0.00 | 0.00 | 51 | 1007.8 |
| 20260508215558 | 75 | 317 | 3.5 | 8.7 | 0.00 | 0.00 | 0.00 | 51 | 1007.7 |
| 20260508215100 | 75 | 347 | 1.7 | 7.0 | 0.00 | 0.00 | 0.00 | 54 | 1007.7 |
| 20260508214557 | 74 | 220 | 1.7 | 5.2 | 0.00 | 0.00 | 0.00 | 52 | 1007.8 |
| 20260508214056 | 74 | 159 | 1.7 | 7.8 | 0.00 | 0.00 | 0.00 | 52 | 1007.8 |
| 20260508213557 | 74 | 228 | 3.5 | 7.8 | 0.00 | 0.00 | 0.00 | 50 | 1007.9 |
| 20260508213102 | 75 | 270 | 1.7 | 7.0 | 0.00 | 0.00 | 0.00 | 51 | 1008.0 |
| 20260508212555 | 75 | 230 | 1.7 | 7.0 | 0.00 | 0.00 | 0.00 | 52 | 1008.0 |
| 20260508212054 | 75 | 173 | 0.9 | 6.1 | 0.00 | 0.00 | 0.00 | 52 | 1008.1 |
| 20260508211553 | 75 | 181 | 1.7 | 7.8 | 0.00 | 0.00 | 0.00 | 56 | 1008.1 |
| 20260508211057 | 75 | 117 | 1.7 | 7.8 | 0.00 | 0.00 | 0.00 | 55 | 1008.2 |
| 20260508210652 | 74 | 214 | 2.6 | 7.8 | 0.00 | 0.00 | 0.00 | 53 | 1008.3 |
| 20260508210058 | 73 | 173 | 1.7 | 7.8 | 0.00 | 0.00 | 0.00 | 55 | 1008.4 |
| 20260508205557 | 73 | 177 | 2.6 | 7.8 | 0.00 | 0.00 | 0.00 | 52 | 1008.6 |
| 20260508205057 | 74 | 36 | 1.7 | 7.0 | 0.00 | 0.00 | 0.00 | 53 | 1008.6 |
| 20260508204556 | 75 | 33 | 1.7 | 7.0 | 0.00 | 0.00 | 0.00 | 51 | 1008.7 |
| 20260508204055 | 73 | 229 | 0.9 | 5.2 | 0.00 | 0.00 | 0.00 | 55 | 1008.8 |
| 20260508203557 | 73 | 205 | 0.9 | 6.1 | 0.00 | 0.00 | 0.00 | 53 | 1008.9 |
| 20260508203055 | 73 | 182 | 1.7 | 6.1 | 0.00 | 0.00 | 0.00 | 53 | 1008.9 |
| 20260508202553 | 73 | 187 | 1.7 | 6.1 | 0.00 | 0.00 | 0.00 | 52 | 1009.1 |
| 20260508202052 | 74 | 150 | 2.6 | 7.0 | 0.00 | 0.00 | 0.00 | 55 | 1009.4 |
| 20260508201602 | 73 | 192 | 2.6 | 7.0 | 0.00 | 0.00 | 0.00 | 52 | 1009.4 |
| 20260508201051 | 72 | 327 | 3.5 | 7.8 | 0.00 | 0.00 | 0.00 | 54 | 1009.5 |
| 20260508200650 | 72 | 307 | 1.7 | 7.8 | 0.00 | 0.00 | 0.00 | 56 | 1009.6 |
| 20260508200106 | 71 | 201 | 0.9 | 6.1 | 0.00 | 0.00 | 0.00 | 52 | 1009.6 |
| 20260508195554 | 71 | 197 | 1.7 | 6.1 | 0.00 | 0.00 | 0.00 | 52 | 1009.7 |
| 20260508195054 | 71 | 273 | 1.7 | 7.0 | 0.00 | 0.00 | 0.00 | 51 | 1009.8 |
| 20260508194557 | 71 | 314 | 2.6 | 7.8 | 0.00 | 0.00 | 0.00 | 54 | 1009.9 |
| 20260508194055 | 71 | 198 | 2.6 | 8.7 | 0.00 | 0.00 | 0.00 | 51 | 1009.8 |
| 20260508193552 | 71 | 199 | 1.7 | 7.0 | 0.00 | 0.00 | 0.00 | 54 | 1010.0 |
| 20260508193100 | 72 | 171 | 1.7 | 7.8 | 0.00 | 0.00 | 0.00 | 55 | 1010.1 |
| 20260508192551 | 72 | 199 | 2.6 | 8.7 | 0.00 | 0.00 | 0.00 | 54 | 1010.1 |
| 20260508192050 | 72 | 193 | 2.6 | 8.7 | 0.00 | 0.00 | 0.00 | 49 | 1010.1 |
| 20260508191550 | 73 | 240 | 2.6 | 8.7 | 0.00 | 0.00 | 0.00 | 50 | 1010.2 |
| 20260508191048 | 73 | 184 | 2.6 | 8.7 | 0.00 | 0.00 | 0.00 | 52 | 1010.2 |
| 20260508190649 | 73 | 155 | 2.6 | 8.7 | 0.00 | 0.00 | 0.00 | 50 | 1010.2 |
| 20260508190048 | 73 | 163 | 4.3 | 8.7 | 0.00 | 0.00 | 0.00 | 49 | 1010.3 |
| 20260508185549 | 73 | 196 | 3.5 | 12.2 | 0.00 | 0.00 | 0.00 | 50 | 1010.4 |
| 20260508185045 | 73 | 188 | 5.2 | 12.2 | 0.00 | 0.00 | 0.00 | 50 | 1010.5 |
| 20260508184554 | 73 | 175 | 5.2 | 13.9 | 0.00 | 0.00 | 0.00 | 47 | 1010.4 |
| 20260508184043 | 73 | 31 | 4.3 | 13.9 | 0.00 | 0.00 | 0.00 | 47 | 1010.6 |
| 20260508183543 | 74 | 204 | 3.5 | 10.4 | 0.00 | 0.00 | 0.00 | 50 | 1010.6 |
| 20260508183049 | 73 | 125 | 3.5 | 18.2 | 0.00 | 0.00 | 0.00 | 50 | 1010.6 |
| 20260508182541 | 73 | 203 | 3.5 | 18.2 | 0.00 | 0.00 | 0.00 | 50 | 1010.7 |
| 20260508182041 | 74 | 182 | 3.5 | 12.2 | 0.00 | 0.00 | 0.00 | 48 | 1010.6 |
| 20260508181543 | 74 | 204 | 3.5 | 11.3 | 0.00 | 0.00 | 0.00 | 49 | 1010.7 |
| 20260508181040 | 75 | 202 | 2.6 | 8.7 | 0.00 | 0.00 | 0.00 | 51 | 1010.7 |
| 20260508180507 | 74 | 205 | 2.6 | 8.7 | 0.00 | 0.00 | 0.00 | 52 | 1010.8 |
| 20260508180005 | 74 | 213 | 1.7 | 8.7 | 0.00 | 0.00 | 0.00 | 49 | 1010.8 |
| 20260508175505 | 74 | 198 | 3.5 | 9.6 | 0.00 | 0.00 | 0.00 | 49 | 1011.0 |
| 20260508175003 | 74 | 97 | 0.9 | 7.8 | 0.00 | 0.00 | 0.00 | 55 | 1011.0 |
| 20260508174503 | 73 | 214 | 3.5 | 7.8 | 0.00 | 0.00 | 0.00 | 47 | 1011.1 |
| 20260508174002 | 73 | 178 | 2.6 | 7.8 | 0.00 | 0.00 | 0.00 | 50 | 1011.2 |
| 20260508173501 | 73 | 5 | 2.6 | 8.7 | 0.00 | 0.00 | 0.00 | 49 | 1011.1 |
| 20260508173100 | 73 | 210 | 4.3 | 11.3 | 0.00 | 0.00 | 0.00 | 49 | 1011.3 |
| 20260508172602 | 73 | 184 | 4.3 | 11.3 | 0.00 | 0.00 | 0.00 | 49 | 1011.5 |
| 20260508172100 | 73 | 196 | 4.3 | 11.3 | 0.00 | 0.00 | 0.00 | 49 | 1011.5 |
| 20260508171600 | 72 | 298 | 3.5 | 11.3 | 0.00 | 0.00 | 0.00 | 49 | 1011.5 |
| 20260508171100 | 72 | 259 | 3.5 | 10.4 | 0.00 | 0.00 | 0.00 | 52 | 1011.5 |
| 20260508170502 | 72 | 246 | 2.6 | 8.7 | 0.00 | 0.00 | 0.00 | 52 | 1011.8 |
| 20260508170002 | 72 | 276 | 4.3 | 8.7 | 0.00 | 0.00 | 0.00 | 52 | 1012.0 |
| 20260508165500 | 72 | 228 | 2.6 | 8.7 | 0.00 | 0.00 | 0.00 | 58 | 1012.0 |
| 20260508165059 | 71 | 295 | 1.7 | 9.6 | 0.00 | 0.00 | 0.00 | 52 | 1012.1 |
| 20260508164605 | 71 | 269 | 1.7 | 9.6 | 0.00 | 0.00 | 0.00 | 50 | 1012.3 |
| 20260508164059 | 71 | 279 | 2.6 | 6.1 | 0.00 | 0.00 | 0.00 | 53 | 1012.3 |
| 20260508163557 | 71 | 337 | 1.7 | 7.8 | 0.00 | 0.00 | 0.00 | 54 | 1012.4 |
| 20260508163117 | 71 | 279 | 2.6 | 7.8 | 0.00 | 0.00 | 0.00 | 55 | 1012.4 |
| 20260508162557 | 71 | 205 | 4.3 | 7.8 | 0.00 | 0.00 | 0.00 | 52 | 1012.5 |
| 20260508162056 | 71 | 188 | 0.9 | 7.8 | 0.00 | 0.00 | 0.00 | 58 | 1012.6 |
| 20260508161556 | 70 | 150 | 2.6 | 9.6 | 0.00 | 0.00 | 0.00 | 54 | 1012.7 |
| 20260508161053 | 69 | 230 | 2.6 | 10.4 | 0.00 | 0.00 | 0.00 | 68 | 1012.7 |
| 20260508160501 | 68 | 304 | 0.9 | 3.5 | 0.00 | 0.00 | 0.00 | 65 | 1013.1 |
| 20260508160100 | 67 | 340 | 0.9 | 3.5 | 0.00 | 0.00 | 0.00 | 68 | 1013.1 |
| 20260508155559 | 66 | 271 | 0.0 | 4.3 | 0.00 | 0.00 | 0.00 | 71 | 1013.0 |
| 20260508155101 | 66 | 243 | 0.9 | 4.3 | 0.00 | 0.00 | 0.00 | 68 | 1013.0 |
| 20260508154559 | 66 | 279 | 0.0 | 2.6 | 0.00 | 0.00 | 0.00 | 68 | 1013.3 |
| 20260508154054 | 65 | 315 | 0.0 | 7.8 | 0.00 | 0.00 | 0.00 | 70 | 1013.2 |
| 20260508153554 | 64 | 204 | 0.9 | 7.8 | 0.00 | 0.00 | 0.00 | 70 | 1013.3 |
| 20260508153056 | 64 | 278 | 0.9 | 2.6 | 0.00 | 0.00 | 0.00 | 69 | 1013.4 |
| 20260508152552 | 64 | 273 | 0.9 | 3.5 | 0.00 | 0.00 | 0.00 | 67 | 1013.5 |
| 20260508152052 | 64 | 193 | 0.9 | 3.5 | 0.00 | 0.00 | 0.00 | 70 | 1013.4 |
| 20260508151552 | 64 | 194 | 0.0 | 3.5 | 0.00 | 0.00 | 0.00 | 72 | 1013.4 |
| 20260508151050 | 63 | 265 | 0.9 | 3.5 | 0.00 | 0.00 | 0.00 | 71 | 1013.5 |
| 20260508150648 | 62 | 65 | 0.0 | 6.1 | 0.00 | 0.00 | 0.00 | 71 | 1013.6 |
| 20260508150052 | 61 | 194 | 0.9 | 6.1 | 0.00 | 0.00 | 0.00 | 72 | 1013.5 |
| 20260508145550 | 61 | 146 | 1.7 | 5.2 | 0.00 | 0.00 | 0.00 | 73 | 1013.4 |